Powrót do katalogu

SL-12 DEB

LostHEO
NORAD 41690·DEBRIS·🇷🇺 Russia

Wystrzelony Oct 26, 2007 z Baikonur Cosmodrome

Loading…

Następne Przeloty (najbliższe 24 godziny)

TLE

NieaktualneSource: Space-Track

Epoka: Apr 21, 2018, 11:22 UTC

1 41690U 07052X   18111.47421640  .00018138  00000-0  97686-2 0  9993
2 41690  63.8917 241.4430 5765713  34.7125 352.0047  4.32641947 54112

Śledź SL-12 DEB w czasie rzeczywistym z AllMySat

Download on the App Store